AirNav   Pilot Hours Calculator
 
 1234 users online  

CA84 Torrey Pines Gliderport
San Diego, California, USA

GOING TO SAN DIEGO?


FAA INFORMATION EFFECTIVE 28 MARCH 2019

Location

FAA Identifier: CA84
Lat/Long: 32-53-23.0000N / 117-14-49.0000W
32-53.383333N / 117-14.816667W
32.8897222 / -117.2469444
(estimated)
Elevation: 372 ft. / 113 m (estimated)
Variation: 13E (1985)
From city: 11 miles NW of SAN DIEGO, CA
Time zone: UTC -7 (UTC -8 during Standard Time)
Zip code: 92037

Gliderport Operations

Gliderport use: Private use. Permission required prior to landing
Activation date: 11/1961
Control tower: no
ARTCC: LOS ANGELES CENTER
FSS: SAN DIEGO FLIGHT SERVICE STATION
Attendance: UNATNDD
Wind indicator: no
Segmented circle: no

Gliderport Communications

WX ASOS at MYF (7 nm SE): 126.9 (858-576-4337)
WX ASOS at SAN (10 nm S): PHONE 619-296-8934
WX AWOS-3P at SEE (14 nm E): 125.45 (619-449-1228)
WX ASOS at CRQ (14 nm N): PHONE 760-930-0864
WX ASOS at RNM (19 nm NE): 132.025 (760-789-0736)

Nearby radio navigation aids

VOR radial/distance  VOR name  Freq  Var
MZBr335/6.5MISSION BAY VORTAC117.8015E
PGYr307/21.5POGGI VORTAC109.8014E
OCNr143/22.7OCEANSIDE VORTAC115.3015E
TIJr311/25.7TIJUANA VOR/DME116.5014E
JLIr231/36.5JULIAN VORTAC114.0015E

Gliderport Services

Airframe service: NONE
Powerplant service: NONE

Runway Information

Runway 9/27

Dimensions: 1500 x 30 ft. / 457 x 9 m
Surface: asphalt
RUNWAY 9  RUNWAY 27
Traffic pattern: leftleft
Obstructions: nonetrees, 100 ft. from runway

Gliderport Ownership and Management from official FAA records

Ownership: Publicly-owned
Owner: CITY OF SAN DIEGO
Manager: JIM FROST
4740 HARBINSON AVE
LA MESA, CA 91941
Phone 619-461-9614
WORK PHONE 619-535-9505 EXT 1585

Additional Remarks

GLIDER PORT IS LEASED FM CITY TO THE ASSOCD GLIDER CLUB OF SOUTHERN CALIF FOR STUDENT TRAINING & RIDGE SOARING.
ALL ACFT ARE TRAILERED GLIDERS.
ROLLING RWY .6 PERCENT GRADIENT.
EXTENSIVE HANG GLIDER OPERATIONS ON WEEKENDS AND WEEKDAYS.

Instrument Procedures

There are no published instrument procedures at CA84.

Some nearby airports with instrument procedures:

KNKX - Miramar MCAS (Joe Foss Field) Airport (5 nm E)
KMYF - Montgomery-Gibbs Executive Airport (7 nm SE)
KSAN - San Diego International Airport (10 nm S)
KNZY - North Island Naval Air Station (Halsey Field) (12 nm S)
KSEE - Gillespie Field Airport (14 nm E)
KCRQ - Mc Clellan-Palomar Airport (14 nm N)
KRNM - Ramona Airport (19 nm NE)
 
Loc | Ops | Rwys | IFR | FBO | Links
Com | Nav | Svcs | Stats | Notes
Area around CA84 (Torrey Pines Gliderport)
 
Road maps at: MapQuest Bing Google
 
Aerial photo
WARNING: Photo may not be current or correct
Aerial photo of CA84 (Torrey Pines Gliderport)
Photo by Doug Fronius
Photo taken 13-Mar-2004
from a 1942 Schweizer TG-2 sailplane.

Do you have a better or more recent aerial photo of Torrey Pines Gliderport that you would like to share? If so, please send us your photo.

 
Sectional chart

 
Airport distance calculator
Flying to Torrey Pines Gliderport? Find the distance to fly.

From to CA84

Sunrise and sunset
Times for 19-Apr-2019
 Local
(UTC-7)
 Zulu
(UTC)
Morning civil twilight05:5012:50
Sunrise06:1513:15
Sunset19:2102:21
Evening civil twilight19:4602:46

Current date and time
Zulu (UTC)  19-Apr-2019 21:18:20
Local (UTC-7)  19-Apr-2019 14:18:20
 
METAR
KNKX 
6nm E 
192055Z 28010KT 10SM FEW020 SCT160 21/13 A2994 RMK AO2 SLP133 T02110128 55006
KMYF 
7nm SE 
192053Z 28009KT 9SM CLR 20/12 A2994 RMK AO2 SLP134 T02000122 55006
KSAN 
10nm S 
192051Z 30014KT 10SM SCT016 BKN100 BKN250 18/12 A2996 RMK AO2 SLP146 T01830122 55005
KNZY 
11nm S 
192052Z 29013KT 10SM FEW008 SCT150 SCT240 18/12 A2994 RMK AO2 SLP140 T01780122 55005
KCRQ 
15nm N 
192053Z 25009KT 9SM OVC008 17/13 A2994 RMK AO2 SLP135 T01670128 55007
KSEE 
15nm E 
192047Z 24008KT 10SM SKC 26/13 A2992
KRNM 
19nm NE 
192053Z 29008KT 10SM SCT095 28/14 A2992 RMK AO2 SLP119 T02780139 56010
TAF
KNKX 
6nm E 
1915/2015 VRB05KT 9999 SCT010 SCT200 QNH2992INS BECMG 1918/1920 29008KT 9999 SCT030 SCT250 QNH2985INS FM200330 26006KT 9999 BKN020 QNH2987INS T26/1921Z T12/2013Z
KSAN 
10nm S 
191747Z 1918/2024 29011KT P6SM FEW020 SCT100 FM200200 VRB05KT 5SM HZ OVC010 FM201200 VRB05KT P6SM OVC020 FM201700 VRB05KT P6SM SCT020 FM201900 27010KT P6SM SCT150
KNZY 
11nm S 
1915/2015 VRB06KT 9999 FEW010 SCT240 522609 523504 QNH2991INS TEMP0 1915/1919 29009KT BKN012 BKN240 FM191900 29010KT 9999 FEW010 SCT240 522609 523504 QNH2989INS FM200200 VRB06KT 9999 SCT010 BKN240 522609 523504 QNH2991INS FM200700 VRB06KT 9999 BKN012 BKN240 500000 QNH2990INS T21/1922Z T13/2013Z FS30103
KCRQ 
15nm N 
191747Z 1918/2018 VRB04KT P6SM SCT250 FM191900 27008KT P6SM FEW008 SCT250 FM200200 VRB04KT 5SM HZ OVC008 FM201200 VRB04KT P6SM OVC012 FM201700 VRB04KT P6SM SCT012
NOTAMs
Click for the latest NOTAMs
NOTAMs are issued by the DoD/FAA and will open in a separate window not controlled by AirNav.

 

 
 

Would you like to see your business listed on this page?

 If your business provides an interesting product or service to pilots, flight crews, aircraft, or users of the Torrey Pines Gliderport, you should consider listing it here.  To start the listing process, click on the button below
 
Add a business
 

Other Pages about Torrey Pines Gliderport

www.agcsc.org/torrey_pines_info.html
 
Update a link
 
Copyright © AirNav, LLC. All rights reserved. Privacy Policy  Contact